[[{"header":{"parameterUnit":"m.s-1","parameterCategory":1,"la1":30.2991,"la2":30.254,"lo1":-89.0895,"lo2":-89.0444,"dy":0.0017,"dx":0.0017,"nx":28,"ny":28,"refTime":"2025-04-28T21:00:00:Z","depth":0,"parameterNumber":2,"parameterNumberName":"U-component_of_WINDS"},"data":[0,0,0,0,0,0,0,0,0,0,0,0,0,0,0,0,0,0,0,0,0,0,0,0,0,0,0,0,0,0,0,0,0,0,0,0,0,0,0,0,0,0,0,0,0,0,0,0,0,0,0,0,0,0,0,0,0,0,-3.0667,-3.0666,0,-3.0619,-3.0618,-3.0618,-3.0539,-3.0537,-3.0536,-3.0534,-3.0485,-3.0485,-3.0485,0,0,0,0,0,0,0,0,0,0,0,0,0,-3.0691,-3.0691,-3.0667,-3.0666,-3.0666,-3.0619,-3.0618,-3.0618,-3.0539,-3.0537,-3.0535,-3.0534,-3.0485,-3.0485,-3.0485,0,0,0,0,0,0,0,0,0,0,0,0,0,-3.0666,-3.0691,-3.0667,-3.0621,-3.0616,-3.0619,-3.0618,-3.0618,-3.0539,-3.0537,-3.0535,-3.0533,-3.0485,-3.0485,-3.0485,-3.053,0,0,-3.0486,-3.0486,0,0,0,0,0,0,0,0,-3.0667,-3.0665,-3.0628,-3.0624,-3.0619,-3.0582,-3.0609,-3.0588,-3.054,-3.0568,-3.0534,-3.0532,-3.0519,-3.0517,-3.0512,-3.0528,-3.0526,-3.0486,-3.0486,-3.0486,-3.0486,0,0,0,0,0,0,0,-3.0669,-3.0667,-3.0648,-3.0628,-3.0622,-3.0603,-3.0597,-3.0605,-3.0557,-3.0566,-3.056,-3.0555,-3.0516,-3.0512,-3.0511,-3.0525,-3.0486,-3.0486,-3.0486,-3.0486,-3.0575,-3.0578,0,0,0,0,0,0,-3.0678,-3.0669,-3.0649,-3.0646,-3.0638,-3.0604,-3.0597,-3.0596,-3.0556,-3.0548,-3.0557,-3.0552,-3.0513,-3.0511,-3.0509,-3.0558,-3.0486,-3.0486,-3.0486,-3.0573,-3.0576,-3.0578,0,0,0,0,0,0,-3.0678,-3.0677,-3.0651,-3.0656,-3.0651,-3.0606,-3.0606,-3.0597,-3.0592,-3.055,-3.0541,-3.0562,-3.0512,-3.0508,-3.0525,-3.0555,-3.0486,-3.0486,-3.057,-3.0574,-3.0577,-3.0657,0,0,0,0,0,0,-3.0679,-3.0677,-3.0693,-3.0657,-3.0651,-3.0669,-3.0607,-3.0597,-3.0593,-3.0585,-3.0552,-3.0544,-3.051,-3.0526,-3.0526,-3.0554,-3.0486,-3.0567,-3.0572,-3.0576,-3.0652,-3.0663,-3.0673,0,0,0,0,0,-3.0681,-3.0718,-3.0695,-3.0693,-3.067,-3.067,-3.0667,-3.0626,-3.0596,-3.0611,-3.0585,-3.0545,-3.0553,-3.0528,-3.0527,-3.0556,-3.0565,-3.0571,-3.0576,-3.0647,-3.0661,-3.0673,0,0,0,0,0,0,-3.0758,-3.0712,-3.0686,-3.0712,-3.0696,-3.0657,-3.0675,-3.0642,-3.0634,-3.0628,-3.0577,-3.0571,-3.0594,-3.0577,-3.0551,-3.0598,-3.0553,-3.0558,-3.0608,-3.062,-3.0631,-3.0634,-3.0486,0,0,0,0,0,-3.0779,-3.0783,-3.0742,-3.0769,-3.0762,-3.0721,-3.0719,-3.069,-3.0671,-3.0663,-3.0638,-3.0621,-3.0619,-3.0619,-3.0616,-3.065,-3.0642,-3.067,-3.068,-3.0689,-3.0694,-3.0711,-3.0723,-3.0595,-3.0595,-3.0595,0,0,-3.082,-3.0796,-3.0801,-3.0784,-3.0768,-3.0773,-3.0715,-3.0723,-3.0727,-3.0665,-3.0678,-3.066,-3.0638,-3.0664,-3.0674,-3.0651,-3.0728,-3.0696,-3.0703,-3.0703,-3.0718,-3.073,-3.0741,-3.0599,-3.0598,-3.0598,0,0,-3.0898,-3.0881,-3.0901,-3.0887,-3.0863,-3.0836,-3.0841,-3.0808,-3.0793,-3.0807,-3.076,-3.0765,-3.0763,-3.0749,-3.0742,-3.0819,-3.0783,-3.0819,-3.0873,-3.0891,-3.0901,-3.091,-3.0936,-3.0946,-3.0824,-3.0825,-3.0825,0,-3.0953,-3.0959,-3.0916,-3.0927,-3.0921,-3.0866,-3.0887,-3.0875,-3.0852,-3.085,-3.0824,-3.0822,-3.0803,-3.0826,-3.0845,-3.0841,-3.0845,-3.0821,-3.0903,-3.0911,-3.0919,-3.0943,-3.0954,-3.0829,-3.0829,-3.0828,-3.0828,0,-3.1027,-3.1032,-3.1052,-3.1031,-3.1028,-3.1044,-3.1004,-3.1006,-3.0978,-3.0954,-3.0969,-3.0945,-3.0936,-3.094,-3.0912,-3.0959,-3.0945,-3.0912,-3.0865,-3.0936,-3.0958,-3.0968,-3.0836,-3.0834,-3.0833,-3.0831,0,0,-3.1149,-3.1107,-3.1115,-3.1105,-3.1077,-3.108,-3.1095,-3.1086,-3.1088,-3.1076,-3.1086,-3.1088,-3.1057,-3.105,-3.102,-3.1036,-3.1098,-3.1001,-3.1,-3.1019,-3.1148,-3.1171,-3.1183,-3.1075,-3.1076,-3.1078,-3.1149,0,-3.1221,-3.1242,-3.1205,-3.1235,-3.1239,-3.1189,-3.1202,-3.1186,-3.1165,-3.1166,-3.1142,-3.1143,-3.1104,-3.1099,-3.1112,-3.1087,-3.1123,-3.1082,-3.1084,-3.1084,-3.1089,-3.1195,-3.1219,-3.1288,-3.1158,-3.1159,-3.116,0,-3.1305,-3.1297,-3.1328,-3.1299,-3.1299,-3.1311,-3.1301,-3.1303,-3.1285,-3.1268,-3.1261,-3.1227,-3.1239,-3.1197,-3.1214,-3.1187,-3.1186,-3.1174,-3.1176,-3.1173,-3.1125,-3.1193,-3.1309,-3.1318,-3.1174,-3.1173,-3.1172,0,-3.1391,-3.1387,-3.1405,-3.1399,-3.1366,-3.1375,-3.1362,-3.1342,-3.134,-3.1331,-3.1329,-3.1323,-3.1319,-3.1315,-3.1281,-3.1253,-3.1302,-3.1256,-3.1288,-3.1289,-3.1299,-3.1298,-3.1414,-3.1302,-3.1301,-3.1301,-3.1301,0,-3.1473,-3.1493,-3.1443,-3.1454,-3.1476,-3.1434,-3.1458,-3.1439,-3.1422,-3.1429,-3.1386,-3.1394,-3.1348,-3.1351,-3.1325,-3.1343,-3.1342,-3.1328,-3.1321,-3.1331,-3.1333,-3.1328,-3.1322,-3.1304,-3.1303,-3.1303,-3.1302,0,-3.157,-3.1538,-3.1554,-3.1522,-3.1514,-3.1532,-3.1505,-3.1514,-3.1491,-3.15,-3.15,-3.1464,-3.1465,-3.1431,-3.1426,-3.1408,-3.1437,-3.1422,-3.1443,-3.1438,-3.1471,-3.1468,-3.1587,-3.16,-3.1481,-3.1482,-3.1483,0,-3.1623,-3.1638,-3.1608,-3.161,-3.1599,-3.1602,-3.16,-3.1561,-3.156,-3.1542,-3.1554,-3.1552,-3.1548,-3.1553,-3.1526,-3.1522,-3.1505,-3.1547,-3.1504,-3.1515,-3.1505,-3.1503,-3.1504,-3.1556,-3.1557,-3.1558,-3.1559,0,-3.1721,-3.1705,-3.1703,-3.1697,-3.1695,-3.1688,-3.1678,-3.1682,-3.164,-3.1642,-3.1643,-3.164,-3.1635,-3.1634,-3.1625,-3.1612,-3.1579,-3.1574,-3.1581,-3.159,-3.1602,-3.1595,-3.1466,-3.157,-3.1569,-3.1569,-3.1568,-3.1567,-3.1797,-3.1808,-3.1789,-3.1789,-3.1778,-3.177,-3.1777,-3.1756,-3.1756,-3.1749,-3.1727,-3.1732,-3.1715,-3.17,-3.1691,-3.1694,-3.1673,-3.1684,-3.1686,-3.1689,-3.1695,-3.1603,-3.1693,-3.1692,-3.1692,-3.1692,-3.1692,0,-3.1892,-3.1878,-3.1878,-3.1866,-3.1867,-3.1837,-3.1825,-3.1827,-3.1832,-3.182,-3.1817,-3.1819,-3.1818,-3.1793,-3.1789,-3.1797,-3.1782,-3.1797,-3.1795,-3.1793,-3.1714,-3.1708,-3.181,-3.181,-3.181,-3.181,-3.181,-3.181,-3.1941,-3.1958,-3.194,-3.1951,-3.1937,-3.1942,-3.1937,-3.1931,-3.192,-3.1924,-3.1924,-3.1907,-3.189,-3.1885,-3.1883,-3.1876,-3.1876,-3.1896,-3.1884,-3.181,-3.1798,-3.1787,-3.1781,-3.1897,-3.1897,-3.1962,-3.1962,-3.1963]},{"header":{"parameterUnit":"m.s-1","parameterCategory":1,"la1":30.2991,"la2":30.254,"lo1":-89.0895,"lo2":-89.0444,"dy":0.0017,"dx":0.0017,"nx":28,"ny":28,"refTime":"2025-04-28T21:00:00:Z","depth":0,"parameterNumber":3,"parameterNumberName":"V-component_of_WINDS"},"data":[0,0,0,0,0,0,0,0,0,0,0,0,0,0,0,0,0,0,0,0,0,0,0,0,0,0,0,0,0,0,0,0,0,0,0,0,0,0,0,0,0,0,0,0,0,0,0,0,0,0,0,0,0,0,0,0,0,0,2.0026,2.0026,0,2.0018,2.0018,2.0018,2.0075,2.0076,2.0078,2.008,2.0065,2.0063,2.0061,0,0,0,0,0,0,0,0,0,0,0,0,0,2.0086,2.0084,2.0026,2.0026,2.0026,2.0018,2.0018,2.0018,2.0074,2.0076,2.0078,2.008,2.0065,2.0063,2.0061,0,0,0,0,0,0,0,0,0,0,0,0,0,2.0067,2.0084,2.0026,2.0053,2.0056,2.0018,2.0018,2.0018,2.0074,2.0076,2.0079,2.0081,2.0066,2.0063,2.006,1.9994,0,0,2.0052,2.005,0,0,0,0,0,0,0,0,2.0068,2.0065,2.005,2.0052,2.0054,2.005,2.0034,2.001,2.0073,2.0067,2.008,2.0082,2.0057,2.0055,2.0048,1.9993,1.9993,2.0051,2.005,2.0049,2.0048,0,0,0,0,0,0,0,2.0069,2.0065,2.0023,2.0049,2.0052,2.0064,2.0064,2.0029,2.0048,2.0068,2.0072,2.007,2.0059,2.0051,2.0048,1.9993,2.0052,2.0049,2.0047,2.0046,1.9883,1.9881,0,0,0,0,0,0,2.0067,2.0066,2.0023,2.0023,2.0067,2.0061,2.0061,2.0049,2.0049,2.0052,2.0068,2.0073,2.0055,2.0052,2.0048,1.9971,2.0049,2.0046,2.0044,1.9886,1.9883,1.988,0,0,0,0,0,0,2.0069,2.0063,2.0023,2.0045,2.0041,2.0058,2.0043,2.0047,2.0039,2.005,2.0053,2.0057,2.0056,2.0052,2.0008,1.9971,2.0045,2.0042,1.9889,1.9885,1.9881,1.9815,0,0,0,0,0,0,2.007,2.0063,2.0039,2.0045,2.004,1.9984,2.0041,2.0045,2.0035,2.0041,2.004,2.0042,2.0058,2.0012,2.0005,1.9968,2.004,1.9892,1.9887,1.9883,1.982,1.9809,1.9799,0,0,0,0,0,2.0072,2.0019,2.0038,2.0032,2.0011,1.9982,1.9979,2.0001,2.0032,2.0007,2.0014,2.0042,1.9976,2.0007,1.9999,1.9961,1.9895,1.9889,1.9883,1.9825,1.9811,1.98,0,0,0,0,0,0,2.0006,2.002,2.0041,1.9989,1.9984,1.9992,1.9961,1.9986,1.9971,1.9977,2.0003,2.0002,1.9953,1.9953,1.9986,1.9897,1.9941,1.9933,1.9899,1.9886,1.9876,1.9876,2.0037,0,0,0,0,0,1.9986,1.9964,1.9977,1.9929,1.9926,1.9944,1.9932,1.995,1.9945,1.9943,1.9946,1.9939,1.9917,1.9902,1.9882,1.9821,1.9821,1.9791,1.9781,1.9772,1.9765,1.9733,1.9719,1.9861,1.9861,1.9861,0,0,1.9943,1.9948,1.9932,1.9916,1.9915,1.9889,1.9942,1.9912,1.9893,1.9938,1.9897,1.9899,1.9893,1.984,1.9817,1.9838,1.9726,1.9765,1.9758,1.9755,1.9725,1.9712,1.97,1.9857,1.9857,1.9858,0,0,1.9853,1.9855,1.9816,1.9814,1.9812,1.9825,1.9815,1.982,1.9824,1.9783,1.9816,1.9793,1.9755,1.9749,1.9741,1.965,1.9675,1.9643,1.9588,1.9556,1.9545,1.9535,1.9502,1.949,1.9636,1.9636,1.9636,0,1.9799,1.9764,1.9792,1.9761,1.9753,1.9795,1.9754,1.9751,1.9741,1.9734,1.9759,1.9713,1.9711,1.9658,1.9636,1.9628,1.9617,1.9642,1.9545,1.9535,1.9526,1.9495,1.9483,1.9632,1.9632,1.9633,1.9633,0,1.9698,1.9673,1.9642,1.9635,1.9623,1.9587,1.9608,1.9593,1.9612,1.9621,1.9579,1.958,1.9561,1.955,1.9567,1.9499,1.9512,1.9541,1.9584,1.9509,1.9479,1.9468,1.9626,1.9628,1.9629,1.963,0,0,1.9563,1.9574,1.9562,1.9559,1.9561,1.9542,1.9508,1.9492,1.9478,1.9471,1.9442,1.941,1.9437,1.9427,1.9445,1.9417,1.9344,1.9449,1.9449,1.9428,1.9268,1.9246,1.9232,1.9362,1.9359,1.9358,1.9268,0,1.9474,1.9419,1.9444,1.9386,1.9363,1.9403,1.9374,1.9371,1.9379,1.936,1.9368,1.9345,1.9382,1.9377,1.9352,1.9358,1.9312,1.9365,1.9333,1.9332,1.9332,1.9217,1.9193,1.9109,1.9257,1.9255,1.9254,0,1.9363,1.9354,1.9293,1.9301,1.9292,1.9265,1.9253,1.9235,1.9232,1.924,1.9231,1.9255,1.922,1.9266,1.9218,1.9254,1.9243,1.9244,1.9241,1.9238,1.9287,1.9209,1.9082,1.9069,1.9237,1.9238,1.9239,0,1.927,1.9242,1.9203,1.92,1.9207,1.9187,1.9189,1.9189,1.9178,1.9167,1.916,1.9145,1.9135,1.9122,1.914,1.9172,1.909,1.9137,1.9094,1.9093,1.9074,1.9074,1.8942,1.9068,1.9068,1.9069,1.9069,0,1.9167,1.9128,1.9162,1.9137,1.9095,1.9124,1.908,1.9086,1.9086,1.9063,1.9096,1.9073,1.9099,1.9078,1.9092,1.905,1.9046,1.905,1.9054,1.9047,1.9046,1.9038,1.9044,1.9065,1.9066,1.9067,1.9067,0,1.9055,1.9076,1.9036,1.9048,1.905,1.9018,1.9027,1.9004,1.9016,1.8985,1.8979,1.8997,1.8974,1.8991,1.8968,1.8977,1.8922,1.8935,1.8924,1.8927,1.8883,1.8886,1.874,1.8722,1.8861,1.8859,1.8858,0,1.8988,1.896,1.8969,1.8957,1.8957,1.8937,1.8927,1.8954,1.8942,1.8938,1.8915,1.8895,1.8881,1.8842,1.8851,1.8833,1.8845,1.8795,1.8842,1.8835,1.8843,1.8844,1.8841,1.8784,1.8783,1.8781,1.878,0,1.8866,1.8878,1.8864,1.8853,1.8841,1.8833,1.8827,1.8815,1.8842,1.8827,1.8805,1.8794,1.8771,1.8751,1.8737,1.8737,1.8762,1.8766,1.8755,1.8746,1.8741,1.8742,1.8896,1.8769,1.877,1.8771,1.8771,1.8772,1.8774,1.8751,1.8754,1.8737,1.8736,1.8731,1.871,1.872,1.8703,1.8689,1.8705,1.8678,1.8677,1.8661,1.8658,1.8636,1.8657,1.8641,1.8637,1.8632,1.8626,1.8745,1.8634,1.8634,1.8634,1.8635,1.8635,0,1.8653,1.8658,1.8642,1.8635,1.8621,1.8649,1.8645,1.8631,1.8608,1.8605,1.8591,1.8566,1.8546,1.8555,1.8538,1.8519,1.853,1.8513,1.8514,1.8513,1.8609,1.862,1.8504,1.8504,1.8504,1.8504,1.8504,1.8504,1.8588,1.8551,1.8564,1.8526,1.8531,1.8507,1.8502,1.8496,1.8495,1.8466,1.8451,1.8458,1.8459,1.8443,1.8426,1.8429,1.842,1.8399,1.8405,1.8494,1.8507,1.8519,1.8529,1.8397,1.8397,1.8312,1.8311,1.8311]}]]